Location: Castelnau
(43.6639°N, 0.8431°W)
Time: 22:44:15
(UTC+00:00)

Cosmos 921 Rocket - Pass Details

Date: 13 January 2026
Orbit: 564 x 620 km, 75.8° (Epoch: 11 February)

Event Time Altitude Azimuth Distance (km) Brightness Sun altitude
Rises 06:07:48 0° 201° (SSW) 2,844 6.4 -15.4°
Reaches altitude 10° 06:10:02 10° 203° (SSW) 1,937 5.5 -15.0°
Maximum altitude 06:14:21 73° 288° (WNW) 626 2.9 -14.2°
Drops below altitude 10° 06:18:37 10° 14° (NNE) 1,916 5.6 -13.5°
Sets 06:20:49 0° 16° (NNE) 2,812 6.4 -13.1°
